Location: Berduj
(43.0019°N, 22.3781°E)
Time: 00:59:52
(UTC+00:00)

Meteor 2-10 - Pass Details

Date: 19 October 2019
Orbit: 738 x 869 km, 81.2° (Epoch: 14 November)

Event Time Altitude Azimuth Distance (km) Brightness Sun altitude
Rises 16:22:53 0° 179° (S) 3,200 7.3 -8.2°
Reaches altitude 10° 16:25:15 10° 176° (S) 2,266 6.5 -8.6°
Maximum altitude 16:30:14 63° 97° (E) 830 3.9 -9.5°
Drops below altitude 10° 16:35:13 10° 17° (NNE) 2,255 6.2 -10.4°
Sets 16:37:34 0° 14° (NNE) 3,183 7.0 -10.8°
